Powrót do katalogu

STARLINK-36192

AktywnyŁącznośćVLEO
NORAD 67024·PAYLOAD·🇺🇸 United States

Wystrzelony Dec 10, 2025 z Vandenberg Space Force Base

Loading…

Następne Przeloty (najbliższe 24 godziny)

TLE

ŚwieżeSource: CelesTrak SupGP

Epoka: Sep 15, 2026, 04:11 UTC

1 67024C 25293X   26258.17479167  .00037109  00000+0  31097-2 0  2584
2 67024  70.0017 336.7454 0003513 267.8562 307.4503 14.98314144    18

Śledź STARLINK-36192 w czasie rzeczywistym z AllMySat

Download on the App Store